Flag for Canada Weather past 2 weeks in Oshawa, Ontario, Canada

Now
54 °F

Clear.


Feels Like: 52 °F
Forecast: 53 / 71 °F
Wind: 6 mph from North

Location: Toronto Buttonville

Current Time: Jul 3, 2015 at 7:01:21 AM

Latest Report: Jul 3, 2015 at 6:00 AM


Visibility: 15 mi

Pressure: 30.01 "Hg

Humidity: 77%

Dew point: 46 °F

Location of OshawaLocation

Historic Weather in Oshawa — Graph

°F

Oshawa temperature yesterday

Maximum temperature yesterday: 70 °F (at 4:00 PM)
Minimum temperature yesterday: 55 °F (at 5:00 AM)
Average temperature yesterday: 63 °F

Past Weeks' High & Low Weather Summary

 TemperatureHumidityPressure
High79 °F (Jun 18, 2:00 PM)100% (Jun 23, 1:04 AM)30.11 "Hg (Jun 23, 1:04 AM)
Low50 °F (Jun 20, 5:00 AM)34% (Jun 24, 6:00 PM)29.62 "Hg (Jun 23, 5:00 AM)
Average65 °F72%29.91 "Hg
* Reported Jun 18 6:00 AM — Jul 3 6:00 AM, Oshawa, Weather by CustomWeather, © 2015

Note: Actual official high and low records may vary slightly from our data, if they occured in-between our weather recording intervals... More about our weather records

Advertising

Oshawa weather history for previous 24 hours

 ConditionsComfort  
Time TempWeatherWind HumidityBarometerVisibility
6:00 AM
Fri, Jul 3
54 °FClear.6 mph77%30.01 "Hg15 mi
5:00 AM54 °FClear.7 mph72%29.99 "Hg15 mi
4:00 AM54 °FClear.5 mph72%29.99 "Hg15 mi
3:00 AM54 °FClear.6 mph72%29.99 "Hg15 mi
2:00 AM55 °FClear.3 mph63%30.00 "Hg15 mi
1:00 AM54 °FClear.6 mph67%30.00 "Hg15 mi
12:00 AM57 °FClear.3 mph59%30.00 "Hg15 mi
11:00 PM
Thu, Jul 2
59 °FClear.5 mph55%30.00 "Hg15 mi
10:00 PM59 °FSunny.7 mph59%29.99 "Hg15 mi
9:00 PM63 °FSunny.8 mph49%29.98 "Hg15 mi
8:00 PM66 °FSunny.7 mph43%29.98 "Hg15 mi
7:00 PM68 °FPassing clouds.7 mph38%29.97 "Hg15 mi
6:00 PM68 °FPassing clouds.12 mph35%29.96 "Hg15 mi
5:00 PM70 °FPassing clouds.12 mph43%29.96 "Hg15 mi
4:00 PM70 °FPassing clouds.5 mph46%29.97 "Hg15 mi
3:00 PM68 °FPassing clouds.8 mph46%29.98 "Hg15 mi
2:00 PM68 °FPassing clouds.10 mph49%29.98 "Hg15 mi
1:00 PM68 °FScattered clouds.12 mph46%30.00 "Hg15 mi
12:00 PM66 °FScattered clouds.10 mph52%29.99 "Hg15 mi
11:00 AM64 °FScattered clouds.8 mph56%30.00 "Hg15 mi
10:00 AM64 °FPassing clouds.9 mph52%29.99 "Hg15 mi
9:00 AM63 °FPassing clouds.6 mph64%29.98 "Hg15 mi
8:00 AM59 °FPassing clouds.5 mph77%29.97 "Hg15 mi
7:00 AM57 °FPassing clouds.2 mph82%29.96 "Hg15 mi
Weather by CustomWeather, © 2015

See weather overviewHow to use our weather pages